Total_Precipitation_Accumulation
0.28 0.59 1.08 1.79 2.43 2.76 2.39 1.64 1.22 1.05 0.97 0.93 0.93 1.01 1.10 1.25 1.91 3.20 3.31 2.96 2.58 2.28 2.25 2.49 2.75 2.61 2.68 2.69 2.61 2.63 2.60 2.68 2.80 2.90 2.96 2.90 2.75 2.72 2.62 2.49 2.66 2.80 2.72 2.79 2.68 2.47 2.29 2.12 2.00
0.45 0.91 1.42 2.02 2.75 2.77 2.23 1.46 1.13 0.99 0.87 0.76 0.75 0.96 1.11 1.12 1.30 2.11 2.87 2.81 2.11 1.89 1.95 1.98 2.41 2.39 2.24 2.18 2.24 2.44 2.44 2.38 2.47 2.70 2.95 3.02 2.98 2.86 2.76 2.65 2.80 2.83 2.68 2.75 2.60 2.31 2.03 1.89 1.89
0.66 1.15 1.74 2.21 2.09 2.02 1.77 1.21 0.92 0.69 0.79 0.82 0.78 0.84 1.21 1.46 1.46 1.94 2.46 2.25 1.80 1.62 1.73 1.97 2.13 2.10 1.98 1.93 2.01 2.29 2.20 2.16 2.26 2.40 2.72 2.92 2.99 3.11 3.07 2.86 2.83 2.65 2.57 2.59 2.45 2.13 1.88 1.74 1.79
0.91 1.30 1.56 1.72 1.32 1.14 1.04 0.87 0.65 0.57 0.66 0.72 0.83 1.08 1.40 1.57 1.60 1.85 1.90 1.66 1.39 1.41 1.53 1.76 1.93 1.85 1.75 1.76 1.93 2.17 2.08 2.10 2.14 2.17 2.52 2.70 2.70 2.78 2.82 2.84 2.67 2.47 2.37 2.37 2.48 2.10 1.88 1.79 1.87
1.01 1.42 1.71 1.32 0.96 0.95 0.84 0.68 0.54 0.48 0.61 0.76 0.82 1.27 1.87 1.96 1.65 1.55 1.46 1.43 1.29 1.38 1.56 1.65 1.79 1.76 1.73 1.79 1.84 2.01 2.07 2.04 2.01 2.14 2.46 2.59 2.58 2.69 2.68 2.62 2.34 2.14 2.23 2.27 2.32 2.14 1.90 1.82 1.95
1.04 1.31 1.30 1.02 0.84 0.78 0.69 0.58 0.53 0.49 0.63 0.85 0.84 1.23 2.25 2.28 1.71 1.47 1.30 1.27 1.18 1.19 1.43 1.54 1.69 1.72 1.70 1.70 1.72 1.86 1.79 1.80 1.92 2.12 2.34 2.30 2.28 2.40 2.40 2.38 2.28 2.02 2.11 2.08 2.00 2.11 1.97 1.97 1.97
1.10 1.04 0.85 0.76 0.71 0.71 0.65 0.55 0.52 0.48 0.67 0.99 0.90 1.29 2.34 2.57 1.82 1.41 1.27 1.19 1.15 1.11 1.31 1.55 1.67 1.72 1.70 1.70 1.68 1.81 1.85 1.76 1.82 1.99 2.14 2.21 2.18 2.13 2.07 2.16 2.21 2.00 1.92 1.83 1.82 1.97 2.09 2.08 1.91
0.65 0.75 0.65 0.57 0.56 0.58 0.50 0.43 0.44 0.59 0.73 0.87 0.82 1.24 2.25 2.28 1.67 1.49 1.46 1.42 1.51 1.50 1.50 1.48 1.44 1.54 1.61 1.60 1.75 1.87 1.94 1.86 1.85 1.97 2.11 2.23 2.14 2.06 1.96 1.82 1.99 1.99 1.85 1.72 1.67 1.80 1.95 1.85 1.80
0.44 0.70 0.63 0.48 0.41 0.42 0.38 0.37 0.41 0.56 0.73 0.95 1.04 1.21 1.61 1.45 1.47 1.62 1.79 1.94 2.01 2.07 2.09 1.82 1.60 1.53 1.63 1.50 1.60 2.07 2.27 2.14 2.18 2.33 2.35 2.48 2.50 2.30 2.25 2.11 2.26 2.15 2.06 1.97 1.92 1.89 2.05 1.89 1.73
0.37 0.53 0.45 0.28 0.26 0.31 0.30 0.32 0.43 0.67 0.94 1.26 1.30 1.34 1.54 1.52 1.45 1.58 1.78 2.02 2.24 2.55 2.57 2.19 1.88 1.63 1.48 1.31 1.74 2.25 2.18 2.30 2.46 2.60 2.47 2.75 2.97 2.83 2.26 2.54 2.91 2.85 2.77 2.56 2.48 2.36 2.14 2.11 2.01
0.30 0.31 0.25 0.20 0.19 0.23 0.26 0.32 0.44 0.75 1.22 1.68 1.92 1.96 1.82 1.69 1.74 1.78 1.88 2.25 2.65 2.88 2.76 2.31 2.05 1.86 1.59 1.68 1.76 2.03 2.35 2.66 2.58 2.40 2.39 2.80 2.71 2.50 2.51 2.74 2.92 3.07 2.90 2.74 2.74 2.81 2.52 2.71 3.15
0.19 0.16 0.15 0.16 0.16 0.20 0.26 0.33 0.47 0.73 1.19 1.45 1.66 1.92 2.06 1.98 2.16 2.20 2.20 2.66 3.03 3.01 2.75 2.42 2.17 1.98 1.85 1.80 1.82 1.98 2.14 2.39 2.48 2.56 2.50 2.76 3.21 3.16 3.08 3.20 3.17 3.23 3.35 3.69 3.46 3.56 3.28 3.19 3.17
0.13 0.14 0.13 0.16 0.19 0.21 0.24 0.35 0.51 0.80 0.91 1.04 1.19 1.38 1.70 2.13 2.55 2.76 2.88 3.26 3.28 3.16 2.94 2.66 2.32 2.32 2.23 2.38 2.48 2.16 2.23 2.36 2.62 2.91 2.88 2.94 3.38 3.39 3.35 3.37 3.47 3.24 3.28 3.55 3.85 3.65 3.68 3.76 3.51
0.13 0.12 0.14 0.19 0.23 0.24 0.30 0.44 0.52 0.85 0.85 0.91 1.11 1.35 1.90 2.52 2.78 3.16 3.58 3.88 3.81 3.63 3.58 3.30 2.89 2.87 2.89 2.79 2.82 2.75 2.47 2.68 2.79 2.97 2.92 3.04 3.35 3.56 3.52 3.30 3.44 3.30 3.24 3.39 3.64 3.64 4.11 4.07 3.95
0.11 0.15 0.20 0.22 0.24 0.28 0.37 0.67 0.71 0.84 0.89 1.00 1.33 1.52 1.98 2.36 2.70 2.87 3.37 3.72 3.74 3.76 3.90 3.82 3.65 3.69 3.66 3.43 3.19 2.99 2.85 2.83 3.13 3.28 3.16 3.21 3.26 3.54 3.53 3.47 3.33 3.33 3.37 3.59 3.66 3.72 4.08 4.04 3.95
0.18 0.29 0.40 0.31 0.26 0.30 0.50 1.05 0.88 0.81 1.01 1.30 1.52 1.64 1.89 2.12 2.52 2.66 3.03 3.55 3.84 3.89 4.14 4.32 4.20 4.24 4.15 4.06 3.85 3.49 3.35 3.35 3.32 3.25 3.29 3.18 3.28 3.41 3.68 3.52 3.25 3.35 3.33 3.53 3.93 4.05 4.26 4.37 4.32
0.33 0.42 0.50 0.46 0.34 0.32 0.56 1.08 1.03 1.01 1.14 1.29 1.42 1.66 1.82 1.85 2.23 2.69 3.01 3.59 4.04 4.20 4.61 5.01 5.07 4.98 4.70 4.41 4.26 4.14 4.00 3.80 3.51 3.45 3.38 3.23 3.19 3.19 3.52 3.48 3.42 3.44 3.66 3.70 3.47 4.10 4.44 4.59 4.51
0.46 0.39 0.43 0.47 0.40 0.41 0.59 0.80 0.92 1.07 1.22 1.35 1.36 1.49 1.53 1.67 2.14 2.70 3.07 3.45 4.13 4.68 5.31 5.44 5.45 5.70 5.49 5.17 5.01 4.82 4.45 4.08 3.74 3.58 3.46 3.18 3.12 3.07 3.45 3.27 3.29 3.40 3.80 3.97 4.06 4.51 4.51 4.36 4.48
0.31 0.40 0.49 0.51 0.43 0.58 0.75 0.92 1.02 1.13 1.21 1.40 1.46 1.37 1.42 1.71 2.13 2.58 3.02 3.46 3.91 4.51 5.15 5.84 6.05 5.90 5.71 5.47 5.04 4.68 4.27 4.04 3.73 3.38 3.16 3.11 3.08 3.22 3.76 3.40 3.73 3.64 3.74 3.83 3.98 4.28 4.29 4.04 4.27
0.24 0.38 0.51 0.55 0.47 0.57 0.82 1.07 1.20 1.16 1.15 1.22 1.38 1.49 1.51 1.77 2.11 2.56 3.08 3.37 3.56 3.90 4.39 4.89 5.25 4.94 4.58 4.42 4.38 4.27 4.19 3.78 3.61 3.50 3.56 3.25 3.26 3.31 3.42 3.70 3.61 3.66 3.83 3.62 3.69 4.08 3.97 3.52 3.88
0.26 0.34 0.42 0.44 0.48 0.62 0.92 1.36 1.40 1.14 1.05 1.09 1.19 1.46 1.66 1.72 2.01 2.34 2.80 3.05 3.18 3.34 3.49 3.69 3.95 4.01 4.04 4.11 4.22 4.40 4.59 4.25 4.07 4.00 3.91 3.42 3.31 3.32 3.44 3.42 3.40 3.56 3.51 3.52 3.53 3.71 3.87 3.74 3.68
0.30 0.24 0.26 0.31 0.53 0.92 1.02 1.67 1.62 1.27 1.22 1.17 1.18 1.30 1.40 1.57 1.68 1.81 2.14 2.58 2.59 2.68 2.93 3.44 3.68 3.79 4.00 4.28 4.35 4.41 4.40 4.34 4.29 4.35 4.27 4.07 3.77 3.56 3.36 3.21 3.20 3.23 3.10 3.28 3.05 3.35 3.61 3.83 3.53
0.22 0.19 0.22 0.31 0.53 0.79 0.81 1.22 1.40 1.39 1.34 1.17 1.10 1.19 1.26 1.33 1.44 1.56 1.78 2.20 2.27 2.24 2.57 3.18 3.76 3.99 4.17 4.40 4.53 4.79 4.62 4.47 4.32 4.36 4.43 4.22 3.90 3.55 3.18 3.19 3.20 3.19 3.04 2.95 2.91 3.19 3.16 3.29 3.34
0.16 0.24 0.36 0.48 0.75 1.20 0.89 0.98 1.38 1.34 1.15 1.04 0.93 0.96 1.06 1.02 1.08 1.30 1.62 2.07 2.25 2.35 2.67 3.13 3.64 4.00 4.16 4.25 4.30 4.42 4.46 4.48 4.25 4.10 3.80 3.42 3.27 3.13 2.88 2.90 2.98 2.90 2.88 2.93 2.88 2.93 2.95 3.04 3.14
0.19 0.38 0.96 1.37 1.62 1.59 0.87 0.89 1.19 1.00 0.92 0.87 0.93 0.94 0.85 0.85 0.93 1.00 1.17 1.29 1.44 1.63 1.92 2.28 2.78 3.15 3.35 3.49 3.56 3.55 3.78 3.84 3.56 3.24 3.02 2.78 2.57 2.42 2.37 2.51 2.65 2.55 2.61 2.65 2.84 2.76 2.68 2.83 3.03
0.19 0.28 0.69 1.06 1.20 1.19 0.98 1.29 1.26 0.89 0.75 0.75 0.82 0.80 0.67 0.61 0.60 0.64 0.76 0.81 1.07 1.37 1.77 2.08 2.25 2.46 2.68 2.80 2.85 2.89 2.97 2.94 2.77 2.81 2.52 2.35 2.21 2.08 2.17 2.29 2.36 2.32 2.35 2.29 2.67 2.50 2.44 2.59 2.67
0.16 0.19 0.27 0.40 0.52 0.89 1.13 1.45 1.33 0.98 0.88 0.81 0.68 0.60 0.55 0.45 0.44 0.51 0.55 0.63 0.88 1.19 1.50 1.67 1.85 2.15 2.42 2.60 2.55 2.49 2.35 2.39 2.52 2.46 2.24 2.15 2.21 2.09 2.17 2.14 2.23 2.28 2.31 2.38 2.53 2.40 2.36 2.60 2.56
0.15 0.21 0.27 0.36 0.60 0.99 1.17 1.44 1.52 1.24 1.12 0.88 0.80 0.83 0.59 0.46 0.44 0.54 0.60 0.69 0.85 0.97 1.23 1.36 1.59 1.94 2.17 2.30 2.28 2.17 2.22 2.20 2.31 2.22 2.16 2.12 2.15 2.22 2.25 2.20 2.33 2.28 2.24 2.27 2.35 2.14 2.16 2.41 2.48
0.19 0.21 0.24 0.32 0.40 0.74 1.21 1.36 1.15 1.07 1.00 0.81 0.77 0.76 0.69 0.64 0.51 0.50 0.64 0.71 0.82 0.98 1.16 1.43 1.67 1.81 1.89 1.96 2.01 2.10 2.11 2.10 2.16 2.11 2.07 2.10 2.22 2.26 2.21 2.14 2.20 2.22 2.18 2.24 2.30 2.06 2.20 2.33 2.36
0.18 0.20 0.22 0.35 0.37 0.40 0.76 1.08 0.84 0.77 0.82 0.76 0.74 0.78 0.77 0.72 0.67 0.66 0.79 0.82 0.87 1.01 1.16 1.47 1.75 1.83 1.88 1.97 2.13 2.31 2.39 2.40 2.34 2.13 2.02 2.09 2.15 2.18 2.23 2.24 2.20 2.13 2.17 2.37 2.42 2.21 2.30 2.40 2.36